Terug naar catalogus

STARLINK-2462

ActiefCommunicatieVLEO
NORAD 48121·PAYLOAD·🇺🇸 United States

Gelanceerd Apr 7, 2021 vanaf Cape Canaveral Space Force Station

Loading…

Volgende Passages (komende 24 uur)

TLE

VersSource: CelesTrak SupGP

Epoch: Sep 15, 2026, 02:01 UTC

1 48121C 21027AF  26258.08451389  .00040382  00000+0  12997-2 0  2583
2 48121  53.1597 353.5422 0001323  94.1209 271.2214 15.31653511    17

Volg STARLINK-2462 in realtime met AllMySat

Download on the App Store